User: anonymous   Login
Location: S�tio Afonso Gruber
(26.1760°S, 49.5250°W)
Time: 06:31:59
(UTC+00:00)
Language:

FALCONSAT 3 - Orbit

View from above orbital plane
View from above orbital plane
View from above satellite
View from above satellite

Ground track
Ground track

The orbit data is extracted from the following two-line orbital elements,

1 30776U 07006E   21130.90838167  .00003376  00000-0  82545-4 0  9992
2 30776  35.4351 341.4675 0003544 284.3926  75.6408 15.40445788787318
Epoch (UTC): 10 May 2021 21:48:04
Eccentricity: 0.0003544
inclination: 35.4351°
perigee height: 442 km
apogee height: 447 km
right ascension of ascending node: 341.4675°
argument of perigee: 284.3926°
revolutions per day: 15.40445788
mean anomaly at epoch: 75.6408°
orbit number at epoch: 78731

The dashed part of the orbit path shows where the satellite is in the earth's shadow,  

DLR